Location: Newark
(42.7133°N, 87.7910°W)
Time: 17:46:49
(UTC+00:00)

Transit 4A - All Passes

Search period start: 17 October 2019 00:00
Search period end: 27 October 2019 00:00
Orbit: 866 x 978 km, 66.8° (Epoch: 16 October)

Date Brightness Start Highest point End Pass type
(mag) Time Alt. Az. Time Alt. Az. Time Alt. Az.
17 Oct - 10:29:10 10° S 10:35:10 44° ESE 10:41:04 10° NE visible
17 Oct - 12:15:48 10° WSW 12:21:38 37° NW 12:27:23 10° NNE daylight
17 Oct - 14:08:38 10° NW 14:09:56 11° NNW 14:11:14 10° NNW daylight
17 Oct - 17:46:24 10° N 17:49:23 14° NNE 17:52:19 10° ENE daylight
17 Oct - 19:31:17 10° NNW 19:37:11 55° NE 19:42:55 10° SE daylight
17 Oct - 21:18:23 10° NW 21:23:07 25° WSW 21:27:45 10° SSW daylight
18 Oct - 10:38:07 10° SSW 10:44:24 65° ESE 10:50:36 10° NE visible
18 Oct - 12:25:55 10° WSW 12:31:15 28° NW 12:36:29 10° NNE daylight
18 Oct - 17:55:12 10° N 17:59:12 18° NE 18:03:08 10° ENE daylight
18 Oct - 19:40:35 10° NNW 19:46:36 79° ENE 19:52:26 10° SE daylight
18 Oct - 21:28:38 10° WNW 21:32:09 16° WSW 21:35:37 10° SW daylight
19 Oct - 09:04:36 10° SE 09:08:10 16° ESE 09:11:41 10° ENE visible
19 Oct - 10:47:20 10° SSW 10:53:42 89° WNW 11:00:00 10° NNE visible
19 Oct - 12:36:18 10° W 12:40:56 21° NW 12:45:31 10° N daylight
19 Oct - 18:04:11 10° N 18:08:56 23° NE 18:13:36 10° E daylight
19 Oct - 19:49:57 10° NW 19:55:55 73° WSW 20:01:43 10° SSE daylight
20 Oct - 09:12:20 10° SSE 09:17:13 24° ESE 09:22:02 10° NE visible
20 Oct - 10:56:48 10° SW 11:03:06 63° WNW 11:09:18 10° NNE visible
20 Oct - 12:46:59 10° WNW 12:50:43 16° NW 12:54:25 10° N daylight
20 Oct - 18:13:16 10° NNW 18:18:35 32° NE 18:23:46 10° ESE daylight
20 Oct - 19:59:26 10° NW 20:05:09 48° WSW 20:10:43 10° S daylight
21 Oct - 09:20:40 10° S 09:26:20 35° ESE 09:31:54 10° NE visible
21 Oct - 11:06:31 10° SW 11:12:34 45° NW 11:18:32 10° NNE visible
21 Oct - 12:58:05 10° NW 13:00:36 12° NNW 13:03:06 10° N daylight
21 Oct - 16:38:01 10° N 16:40:04 12° NNE 16:42:05 10° NE daylight
21 Oct - 18:22:25 10° NNW 18:28:08 44° NE 18:33:42 10° ESE daylight
21 Oct - 20:09:06 10° NW 20:14:19 32° WSW 20:19:24 10° S daylight
22 Oct - 09:29:24 10° S 09:35:31 51° ESE 09:41:32 10° NE visible
22 Oct - 11:16:28 10° WSW 11:22:07 33° NW 11:27:41 10° NNE visible
22 Oct - 16:46:35 10° N 16:49:57 15° NNE 16:53:15 10° ENE daylight
22 Oct - 18:31:40 10° NNW 18:37:36 62° NE 18:43:23 10° SE daylight
22 Oct - 20:19:03 10° WNW 20:23:23 21° WSW 20:27:40 10° SSW daylight
23 Oct - 07:57:31 10° ESE 07:59:26 11° E 08:01:21 10° E visible
23 Oct - 09:38:27 10° SSW 09:44:47 74° ESE 09:51:01 10° NE visible
23 Oct - 11:26:40 10° W 11:31:45 25° NW 11:36:46 10° N visible
23 Oct - 16:55:28 10° N 16:59:45 20° NE 17:03:56 10° E daylight
23 Oct - 18:40:58 10° NNW 18:46:59 89° ENE 18:52:49 10° SSE daylight
23 Oct - 20:29:36 10° WNW 20:32:24 14° WSW 20:35:10 10° SW daylight
24 Oct - 08:04:19 10° SE 08:08:26 18° ESE 08:12:31 10° ENE visible
24 Oct - 09:47:45 10° SW 09:54:07 79° WNW 10:00:22 10° NNE visible
24 Oct - 11:37:10 10° W 11:41:28 19° NW 11:45:45 10° N visible
24 Oct - 17:04:29 10° NNW 17:09:27 26° NE 17:14:18 10° E daylight
24 Oct - 18:50:23 10° NW 18:56:16 63° WSW 19:01:59 10° SSE daylight
25 Oct - 08:12:19 10° SSE 08:17:31 27° ESE 08:22:39 10° NE visible
25 Oct - 09:57:19 10° SW 10:03:32 56° NW 10:09:39 10° NNE visible
25 Oct - 11:47:59 10° WNW 11:51:18 14° NNW 11:54:35 10° N visible
25 Oct - 17:13:35 10° NNW 17:19:03 35° NE 17:24:23 10° ESE daylight
25 Oct - 18:59:56 10° NW 19:05:28 42° WSW 19:10:53 10° S daylight
26 Oct - 08:20:49 10° S 08:26:39 40° ESE 08:32:25 10° NE visible
26 Oct - 10:07:07 10° WSW 10:13:01 40° NW 10:18:51 10° NNE visible
26 Oct - 11:59:22 10° NW 12:01:12 11° NNW 12:03:02 10° N daylight
26 Oct - 15:38:05 10° N 15:40:39 13° NNE 15:43:11 10° NE daylight
26 Oct - 17:22:45 10° NNW 17:28:34 49° NE 17:34:13 10° SE daylight
26 Oct - 19:09:40 10° NW 19:14:36 28° WSW 19:19:26 10° SSW daylight
